Weather History for Poplar Bluff, MO

Change the Weather History Date:

Tuesday, July 30, 2013

  Actual Average Record
Temperature  
Mean Temperature 72 °F -  
Max Temperature 78 °F 89 °F 104 °F (1980)
Min Temperature 68 °F 68 °F 52 °F (1925)
Cooling Degree Days 8    
Growing Degree Days 22 (Base 50)    
Moisture  
Dew Point 70 °F    
Average Humidity 90    
Maximum Humidity 94    
Minimum Humidity 76    
Precipitation  
Precipitation 1.19 in - - ()
Sea Level Pressure  
Sea Level Pressure 30.06 in    
Wind  
Wind Speed 4 mph (SSE)    
Max Wind Speed 12 mph    
Max Gust Speed -    
Visibility 5 miles    
Events Fog , Rain    
Averages and records for this station are not official NWS values.
T = Trace of Precipitation, MM = Missing Value Source: NWS Daily Summary

Daily Weather History Graph

Daily Weather History Graph

Search for Another Location

Airport:

Trip Planner

Search our weather history database for the weather conditions in past years. The results will help you decide how hot, cold, wet, or windy it might be!

Date:

Astronomy

Jul. 30, 2013 Rise Set
Actual Time 6:05 AM CDT 8:09 PM CDT
Civil Twilight 5:36 AM CDT 8:38 PM CDT
Nautical Twilight 5:01 AM CDT 9:12 PM CDT
Astronomical Twilight 4:23 AM CDT 9:50 PM CDT
Moon 12:22 AM CDT 2:30 PM CDT
Length of Visible Light 15h 01m
Length of Day
14h 03m
Last Quarter, 41% of the Moon is Illuminated
Jul 30
Last Quarter
Aug 6
New
Aug 14
First Quarter
Aug 20
Full
Aug 28
Last Quarter

Hourly Weather History & Observations

Time (CDT) Temp. Dew Point Humidity Pressure Visibility Wind Dir Wind Speed Gust Speed Precip Events Conditions
12:53 AM 70.0 °F 62.1 °F 76% 30.10 in 10.0 mi East 4.6 mph - N/A   Clear
1:53 AM 69.1 °F 62.1 °F 78% 30.09 in 10.0 mi East 3.5 mph - N/A   Overcast
2:53 AM 69.1 °F 63.0 °F 81% 30.09 in 10.0 mi Calm Calm - N/A   Overcast
3:53 AM 69.1 °F 63.0 °F 81% 30.08 in 10.0 mi Calm Calm - N/A   Mostly Cloudy
4:53 AM 69.1 °F 64.0 °F 84% 30.08 in 10.0 mi Calm Calm - N/A   Partly Cloudy
5:53 AM 69.1 °F 64.0 °F 84% 30.08 in 10.0 mi Calm Calm - N/A   Mostly Cloudy
6:53 AM 68.0 °F 64.9 °F 90% 30.09 in 4.0 mi NNW 3.5 mph - 0.02 in Rain Rain
7:43 AM 68.0 °F 66.2 °F 94% 30.12 in 1.8 mi Calm Calm - 0.04 in Rain Rain
7:53 AM 68.0 °F 64.9 °F 90% 30.11 in 0.5 mi Calm Calm - 0.19 in Fog , Rain Heavy Rain
8:00 AM 68.0 °F 66.2 °F 94% 30.12 in 1.0 mi Calm Calm - 0.08 in Rain Heavy Rain
8:14 AM 68.0 °F 66.2 °F 94% 30.12 in 2.0 mi SE 4.6 mph - 0.14 in Rain Rain
8:21 AM 68.0 °F 66.2 °F 94% 30.11 in 1.5 mi SE 6.9 mph - 0.20 in Rain Rain
8:32 AM 69.8 °F 66.2 °F 88% 30.11 in 2.5 mi SSE 6.9 mph - 0.22 in Rain Light Rain
8:39 AM 69.8 °F 66.2 °F 88% 30.11 in 4.0 mi SE 5.8 mph - 0.23 in Rain Light Rain
8:53 AM 69.1 °F 66.9 °F 93% 30.10 in 4.0 mi SSE 4.6 mph - 0.24 in Rain Light Rain
9:27 AM 69.8 °F 66.2 °F 88% 30.11 in 3.0 mi SSE 3.5 mph - 0.04 in Rain Light Rain
9:37 AM 69.8 °F 68.0 °F 94% 30.10 in 2.5 mi SE 4.6 mph - 0.06 in Rain Rain
9:53 AM 70.0 °F 68.0 °F 93% 30.09 in 2.5 mi SSE 4.6 mph - 0.10 in Rain Rain
10:11 AM 71.6 °F 68.0 °F 88% 30.11 in 2.0 mi South 3.5 mph - 0.06 in Rain Rain
10:19 AM 71.6 °F 69.8 °F 94% 30.11 in 1.5 mi South 4.6 mph - 0.10 in Rain Heavy Rain
10:29 AM 71.6 °F 69.8 °F 94% 30.11 in 0.8 mi South 5.8 mph - 0.22 in Rain Heavy Rain
10:44 AM 71.6 °F 69.8 °F 94% 30.10 in 2.0 mi SSE 6.9 mph - 0.39 in Rain Rain
10:53 AM 72.0 °F 69.1 °F 91% 30.09 in 3.0 mi South 6.9 mph - 0.41 in Rain Rain
11:02 AM 71.6 °F 69.8 °F 94% 30.10 in 4.0 mi South 4.6 mph - 0.02 in Rain Light Rain
11:28 AM 73.4 °F 69.8 °F 88% 30.10 in 6.0 mi SSE 5.8 mph - 0.05 in Rain Light Rain
11:53 AM 73.0 °F 71.1 °F 93% 30.08 in 10.0 mi South 4.6 mph - 0.05 in Rain Light Rain
12:21 PM 75.2 °F 71.6 °F 89% 30.08 in 10.0 mi SSE 5.8 mph - 0.00 in   Overcast
12:28 PM 75.2 °F 71.6 °F 89% 30.08 in 10.0 mi South 5.8 mph - 0.00 in Rain Light Rain
12:53 PM 75.0 °F 72.0 °F 90% 30.05 in 9.0 mi SSE 5.8 mph - 0.01 in Rain Light Rain
1:15 PM 75.2 °F 71.6 °F 89% 30.05 in 10.0 mi SSE 8.1 mph - 0.00 in   Overcast
1:25 PM 75.2 °F 71.6 °F 89% 30.06 in 10.0 mi South 4.6 mph - 0.00 in   Overcast
1:45 PM 75.2 °F 71.6 °F 89% 30.06 in 2.0 mi SSW 6.9 mph - 0.02 in Rain Light Rain
1:53 PM 75.0 °F 72.0 °F 90% 30.05 in 0.8 mi South 6.9 mph - 0.10 in Rain Heavy Rain
2:02 PM 75.2 °F 71.6 °F 89% 30.04 in 2.0 mi SE 6.9 mph - 0.04 in Rain Light Rain
2:10 PM 75.2 °F 71.6 °F 89% 30.05 in 7.0 mi South 9.2 mph - 0.04 in Rain Light Rain
2:22 PM 75.2 °F 73.4 °F 94% 30.05 in 7.0 mi SSE 6.9 mph - 0.04 in Rain Light Rain
2:45 PM 75.2 °F 73.4 °F 94% 30.04 in 8.0 mi SSE 9.2 mph - 0.05 in Rain Light Rain
2:53 PM 75.9 °F 73.0 °F 91% 30.03 in 10.0 mi South 9.2 mph - 0.05 in   Overcast
3:32 PM 75.2 °F 73.4 °F 94% 30.03 in 7.0 mi South 9.2 mph - 0.00 in Rain Light Rain
3:53 PM 77.0 °F 73.9 °F 90% 30.01 in 7.0 mi SSE 8.1 mph - 0.01 in Rain Light Rain
4:00 PM 77.0 °F 73.4 °F 89% 30.02 in 8.0 mi South 8.1 mph - 0.00 in Rain Light Rain
4:14 PM 77.0 °F 73.4 °F 89% 30.02 in 8.0 mi South 6.9 mph - 0.00 in   Overcast
4:33 PM 77.0 °F 73.4 °F 89% 30.02 in 8.0 mi South 9.2 mph - 0.00 in   Mostly Cloudy
4:51 PM 77.0 °F 73.4 °F 89% 30.01 in 6.0 mi South 9.2 mph - 0.00 in Rain Light Rain
4:53 PM 77.0 °F 73.0 °F 88% 30.00 in 6.0 mi SSE 10.4 mph - 0.00 in Rain Light Rain
5:53 PM 77.0 °F 73.9 °F 90% 29.99 in 7.0 mi SSW 11.5 mph - 0.01 in   Overcast
6:00 PM 77.0 °F 73.4 °F 89% 30.00 in 7.0 mi SSW 9.2 mph - N/A   Overcast
6:53 PM 77.0 °F 73.0 °F 88% 29.99 in 8.0 mi SSW 6.9 mph - N/A   Overcast
7:53 PM 75.9 °F 72.0 °F 87% 29.99 in 9.0 mi SSW 4.6 mph - N/A   Partly Cloudy
8:53 PM 75.0 °F 72.0 °F 90% 29.99 in 8.0 mi Calm Calm - N/A   Mostly Cloudy
9:53 PM 73.9 °F 71.1 °F 91% 30.01 in 4.0 mi Calm Calm - N/A   Partly Cloudy
10:14 PM 73.4 °F 71.6 °F 94% 30.02 in 2.5 mi Calm Calm - N/A   Scattered Clouds
10:27 PM 73.4 °F 71.6 °F 94% 30.02 in 1.8 mi Calm Calm - N/A   Scattered Clouds
10:34 PM 73.4 °F 71.6 °F 94% 30.02 in 2.5 mi Calm Calm - N/A   Mostly Cloudy
10:51 PM 73.4 °F 71.6 °F 94% 30.02 in 3.0 mi Calm Calm - N/A   Overcast
10:53 PM 73.9 °F 71.1 °F 91% 30.01 in 3.0 mi Calm Calm - N/A   Overcast
11:14 PM 73.4 °F 71.6 °F 94% 30.02 in 2.0 mi Calm Calm - N/A   Overcast
11:35 PM 73.4 °F 71.6 °F 94% 30.02 in 3.0 mi Calm Calm - N/A   Overcast
11:44 PM 73.4 °F 71.6 °F 94% 30.02 in 2.0 mi Calm Calm - N/A   Overcast
11:53 PM 73.9 °F 72.0 °F 93% 30.01 in 2.0 mi Calm Calm - N/A   Overcast